Regional Weather Roundup
Issued by NWS

Home | Current Version | Previous Version | Graphics & Text | Print | Product List | Glossary On
Versions: 1 2 3 4 5 6 7 8 9 10 11 12 13 14 15 16 17 18 19 20 21 22 23 24 25 26 27 28 29 30 31 32 33 34 35 36 37 38 39 40 41 42 43 44 45 46 47 48 49 50
000
ASUS45 KTFX 291319
RWRMT
MONTANA HOURLY WEATHER ROUNDUP
NATIONAL WEATHER SERVICE GREAT FALLS MT
719 AM MDT FRI AUG 29 2014

NOTE: "FAIR" INDICATES FEW OR NO CLOUDS BELOW 12000 FEET WITH NO
SIGNIFICANT WEATHER AND/OR OBSTRUCTIONS TO VISIBILITY.

* THESE STATIONS ARE NOT UNDER NWS QUALITY CONTROL. THEY DO NOT
   REPORT WEATHER SUCH AS PRECIPITATION OR FOG.

MTZ001>007-043-291400-
WEST OF THE DIVIDE
CITY           SKY/WX    TMP DP  RH WIND       PRES   REMARKS
KALISPELL      CLEAR     46  46 100 CALM      30.01F
MISSOULA       CLEAR     48  43  83 CALM      30.06S
BUTTE          PTCLDY    43  37  79 SE5       30.14F
MULLAN PASS    CLEAR     52  37  57 VRB3      30.11S
* LINCOLN      N/A       41  40  96 NE1        N/A
* LOOKOUT PASS N/A       48  41  77 S1         N/A
* POLSON       N/A       50  45  83 SE1        N/A
* RONAN APT    CLEAR     46  41  83 N/A        N/A
* SEELEY LAKE  N/A       38  36  93 N2         N/A
* THOMP F APT  PTCLDY    56  41  57 N5G10      N/A
$$

MTZ008-052>055-291400-
SOUTHWEST MONTANA
CITY           SKY/WX    TMP DP  RH WIND       PRES   REMARKS
BOZEMAN        FAIR      46  45  96 SE5       30.12R
DILLON         PTCLDY    54  45  72 N5        30.12R
W YELLOWSTONE  FAIR      37  37 100 CALM      30.23R
* THREE FORKS  PTCLDY    54  34  47 N/A        N/A
* BOULDER HILL N/A       48  42  80 S9         N/A
* MONIDA PASS  N/A       45  44  96 SW4        N/A
* RAYNOLDS PAS N/A       44  22  42 SE3        N/A
* WHITEHALL    N/A       50  45  83 N4G9       N/A
* WISE RIVER   N/A       42  36  79 W1         N/A
$$

MTZ009>010-012-014-046-048-049-054-291400-
EAST SLOPES AND CENTRAL MONTANA
CITY           SKY/WX    TMP DP  RH WIND       PRES   REMARKS
CUT BANK       FOG       48  46  93 E5        30.07S VSB M1/4
GREAT FALLS    CLEAR     48  48 100 E8        30.08R
HELENA         CLEAR     50  46  86 CALM      30.08F
MALMSTROM AFB  CLEAR     48  46  93 E5        30.10S
* CONRAD       CLEAR     43  43 100 N/A        N/A
* EAST GLACIER N/A       43  43 100 VRB2       N/A
* MONARCH      N/A       46  42  86 E5         N/A
* PENDROY      N/A       42  42 100 W1         N/A
* ROGERS PASS  N/A       48  43  83 SW4G9      N/A
* SAINT MARY   N/A       43  43 100 SE2        N/A
* SWEET GRASS  N/A       49  49 100 S10G15     N/A
* WHITE SULPH  N/A       48  47  96 SE4        N/A
$$

MTZ011-013-016-021-035-040-045-047-050-051-291400-
NORTH CENTRAL MONTANA
CITY           SKY/WX    TMP DP  RH WIND       PRES   REMARKS
HAVRE          CLOUDY    54  48  80 NW3       30.08S
LEWISTOWN      CLEAR     48  45  89 CALM      30.11R
* CHINOOK      CLEAR     54  52  93 SW3       30.08S
* FORT BENTON  CLEAR     52  48  86 NE6       30.10R
* CHESTER      N/A       46  44  93 E3         N/A
* DENTON       N/A       51  50  96 N/A        N/A
* GEYSER       N/A       45  44  96 SE4        N/A
* JUDITH GAP   N/A       49  47  93 NE5        N/A
* LOMA         N/A       49  47  93 NE6        N/A
$$

MTZ017>020-022>027-061-062-291400-
NORTHEAST MONTANA
CITY           SKY/WX    TMP DP  RH WIND       PRES   REMARKS
GLASGOW        CLOUDY    55  54  96 NW8       30.03R
GLENDIVE       CLOUDY    57  55  93 NW9       29.99R
JORDAN         PTCLDY    57  55  93 NW14      30.05R
SIDNEY         CLOUDY    59  57  93 NW10      29.96R
WOLF POINT     CLOUDY    59  54  84 CALM      30.00R
* BEAVER HILL  N/A       58  55  90 VRB10      N/A
* CIRCLE       N/A       58  56  93 NW6        N/A
* LINDSAY DVD  N/A       57  56  96 W17G24     N/A
* NAVAJO       N/A       55  53  93 NW12       N/A
$$

MTZ028>042-056>058-291400-
SOUTHCENTRAL AND SOUTHEAST MONTANA
CITY           SKY/WX    TMP DP  RH WIND       PRES   REMARKS
BAKER          CLOUDY    59  54  84 VRB5      29.99F
BILLINGS       FAIR      55  52  90 CALM      30.10S
LIVINGSTON     MOCLDY    52  46  80 SE5       30.13R
MILES CITY     CLOUDY    61  55  81 W8        30.03R
* LAUREL APT   PTCLDY    54  46  74 N/A        N/A
* ROUNDUP APT  CLEAR     54  46  74 N/A        N/A
* ALZADA       N/A       63  54  73 NW15G21    N/A
* HYSHAM       N/A       57  53  87 W4G9       N/A
* LAME DEER    N/A       56  55  96 NW8        N/A
* REED POINT   N/A       54  51  90 W1         N/A
* ROSCOE HILL  N/A       51  46  83 NW1        N/A
$$

REGIONAL REPORTS...DAKOTAS
CITY           SKY/WX    TMP DP  RH WIND       PRES   REMARKS
WILLISTON      CLOUDY    61  55  81 NW8       29.93R
DICKINSON      MOCLDY    61  55  81 NW15      29.92R
BEACH          N/A       57  57 100 CALM      29.95F
CROSBY         PTCLDY    57  57 100 N14G21    29.93R
TIOGA          PTCLDY    59  59 100 N16       29.94R
WATFORD CITY   LGT RAIN  59  57  93 W9        29.92R
BISMARCK       PTCLDY    66  63  90 W6        29.81F
GRAND FORKS    CLOUDY    66  64  93 CALM      29.77R
FARGO          FOG       66  64  93 W5        29.77S VSB 2
BUFFALO SD     CLOUDY    61  55  81 N15       29.92R
RAPID CITY     PTCLDY    66  50  56 N21G38    29.95R
$$

REGIONAL REPORTS...WYOMING/IDAHO/WASHINGTON
CITY           SKY/WX    TMP DP  RH WIND       PRES   REMARKS
GILLETTE       CLOUDY    59  52  78 NW14      30.07R
SHERIDAN       CLOUDY    57  54  90 NW13      30.07R
CODY           CLOUDY    54  50  86 NE7       30.15R
YELLOWSTONE LA PTCLDY    39  39 100 CALM      30.30S
SALMON         PTCLDY    46  45  96 CALM      30.09R
MULLAN PASS    CLEAR     52  37  57 VRB3      30.11S
SAND POINT     PTCLDY    46  46 100 CALM      29.96S
SPOKANE        MOCLDY    57  41  55 S8        29.95R
$$

REGIONAL REPORTS...ALBERTA
CITY           SKY/WX    TMP DP  RH WIND       PRES   REMARKS
CALGARY        MOCLDY    41  39  93 S6        29.99F
LETHBRIDGE     MOCLDY    46  45  96 SE8       30.04S
MEDICINE HAT   MOCLDY    50  50 100 SW5       30.07S
EDMONTON       MOCLDY    43  41  93 S7        29.94F
WATERTON GATE  N/A       39  39 100 N2         N/A
CARDSTON       N/A       41  41 100 SE2        N/A
MILK RIVER     N/A       50  48  93 S9         N/A
$$

REGIONAL REPORTS...SASKATCHEWAN
CITY           SKY/WX    TMP DP  RH WIND       PRES   REMARKS
SWIFT CURRENT  FOG       50  50 100 W6        30.05R VSB 1
MOOSE JAW      FAIR      54  52  93 NW6       30.03R
REGINA         FAIR      59 N/A N/A NW6        N/A
VAL MARIE      N/A       52  50  93 N2         N/A
ASSINIBOIA     N/A       54  52  93 NW5        N/A
CORONACH       N/A       55  52  90 NW10       N/A

$$




USA.gov is the U.S. government's official web portal to all federal, state and local government web resources and services.